sat.trackr.live / text

‹ back to catalog

S-NET B

NORAD 43187 · 2018-014H

PAYLOAD ACTIVE UNKNOWN

§ Identity

Operator
Country
GER
Launch date
2018-02-01
Launch site
VOSTO
Launch vehicle
Mass (kg)
RCS (m²)

External: N2YO · Heavens-Above · Gunter

§ Orbital elements

Epoch: 2026-09-20T04:36:37.099584Z

Period
94.90 min
Inclination
97.5253°
Eccentricity
0.0010124
Mean motion
15.17383788 rev/d
Perigee alt
506.8 km
Apogee alt
520.7 km
Semi-major
6,891.9 km
B*
1.4918e-4
RAAN
167.3715°
Arg perigee
51.8522°
Mean anomaly
308.3622°
Rev number
47,316

§ Raw data

S-NET B1 43187U 18014H   26263.19209606  .00002915  00000+0  14918-3 0  99912 43187  97.5253 167.3715 0010124  51.8522 308.3622 15.17383788473163

JSON: /api/v1/satellites/43187 · /tle

For live sub-satellite position, see the globe view (requires WebGL).

§ Visibility from observer

Set your observer location to see the next 7 days of passes ≥ 10°. The values pass through the URL so the page stays shareable.

No JS? Fill the form by hand. The geolocation button needs JavaScript.

§ Radio — SatNOGS DB

ModeDescriptionDownlinkUplink
AFSK TUBiX10 AFSK 1k2 TLM 435.950 MHz
FM S-Band Downlink 2.263 GHz

2 transmitters · refreshed weekly from db.satnogs.org